Regional Weather Roundup
Issued by NWS Charleston, SC

Current Version | Previous Version | Graphics & Text | Print | Product List | Glossary On
Versions: 1 2 3 4 5 6 7 8 9 10 11 12 13 14 15 16 17 18 19 20 21 22 23 24 25 26 27 28 29 30 31 32 33 34 35 36 37 38 39 40 41 42 43 44 45 46 47 48 49 50
000
ASUS42 KCHS 030627
RWRCHS

REGIONAL WEATHER ROUNDUP
NATIONAL WEATHER SERVICE CHARLESTON SC
200 AM EDT MON AUG 03 2015

NOTE: "FAIR" INDICATES FEW OR NO CLOUDS BELOW 12,000 FEET WITH NO
SIGNIFICANT WEATHER AND/OR OBSTRUCTIONS TO VISIBILITY.

NOT ALL STATIONS ARE QUALITY CONTROLLED BY THE NATIONAL
WEATHER SERVICE. USE DATA WITH CAUTION...ESPECIALLY
DEWPOINT OBSERVATIONS.

SCZ027-030-031-034>040-042>050-030700-
...SOUTHEAST SOUTH CAROLINA...

CITY           SKY/WX    TMP DP  RH WIND       PRES   REMARKS
N CHARLESTON   LGT RAIN  76  74  93 SE3       29.91F
6HR MIN TEMP:  74; 6HR MAX TEMP:  80; 6HR PCP:  0.93;

WATERFRONT PRK   N/A     78  76  94 VRB2      29.89S
MOUNT PLEASANT LGT RAIN  75  73  94 CALM      29.91F
JOHNS ISLAND   MOCLDY    81  75  83 S12       29.90F
PINOPOLIS      NOT AVBL
MONCKS CORNER  FAIR      75  72  88 CALM      29.91S
SUMMERVILLE    MOCLDY    73  73 100 CALM      29.92S
BEAUFORT MCAS  MOCLDY    77  75  93 CALM      29.89F
6HR MIN TEMP:  76; 6HR MAX TEMP:  80; 6HR PCP:  0.02;

BEAUFORT ARPT  MOCLDY    77  77 100 CALM      29.88F
HILTON HEAD IS MOCLDY    79  75  89 S8        29.90S
WALTERBORO     CLOUDY    77  73  88 SE5       29.90F
ALLENDALE      MOCLDY    75  73  94 CALM      29.89S

...SOUTHERN MIDLANDS AND PEE DEE...

CITY           SKY/WX    TMP DP  RH WIND       PRES   REMARKS
GEORGETOWN     NOT AVBL
KINGSTREE      NOT AVBL
ORANGEBURG     MOCLDY    74  71  91 CALM      29.91S
6HR MIN TEMP:  74; 6HR MAX TEMP:  83;

BARNWELL       FAIR      75  73  94 CALM      29.90F
AIKEN          FAIR      72  70  94 SE3       29.94S
MANNING        HVY RAIN  72  72 100 CALM      29.91F
COLUMBIA       MOCLDY    76  69  79 NE3       29.90F
6HR MIN TEMP:  76; 6HR MAX TEMP:  84;

SUMTER         MOCLDY    74  70  88 VRB1      29.89F
6HR MIN TEMP:  72; 6HR MAX TEMP:  80;

FLORENCE       MOCLDY    76  73  91 SE3       29.92F
6HR MIN TEMP:  75; 6HR MAX TEMP:  81;

MYRTLE BEACH   CLOUDY    81  72  74 S13G20    29.94S
N MYRTLE BEACH CLOUDY    80  72  76 SW23G35   29.92F
6HR MIN TEMP:  79; 6HR MAX TEMP:  81; 6HR PCP: TRACE;


$$

GAZ063-065-086>088-099>101-113>116-118-119-134>141-150-030700-
...SOUTHEAST GEORGIA...

CITY           SKY/WX    TMP DP  RH WIND       PRES   REMARKS
SAVANNAH ARPT  CLOUDY    77  74  90 CALM      29.88F
6HR MIN TEMP:  75; 6HR MAX TEMP:  77; 6HR PCP:  0.18;

HUNTER AAF     MOCLDY    78  78  98 S5        29.85F
6HR MIN TEMP:  76; 6HR MAX TEMP:  78; 6HR PCP:  0.01;

FORT STEWART   NOT AVBL
STATESBORO     PTCLDY    76  76 100 SE3       29.88F
SYLVANIA       PTCLDY    76  75  99 CALM      29.89F
CLAXTON        NOT AVBL

...CSRA...CENTRAL AND FAR SOUTHEAST GEORGIA...

CITY           SKY/WX    TMP DP  RH WIND       PRES   REMARKS
THOMSON        PTCLDY    74  74 100 CALM      29.94S
AUGUSTA-BUSH   PTCLDY    73  72  96 SE3       29.89S
6HR MIN TEMP:  73; 6HR MAX TEMP:  78;

AUGUSTA-DANIEL MOCLDY    76  73  91 SE5       29.91F
SWAINSBORO     FAIR     N/A N/A N/A CALM      29.88F
VIDALIA        FOG       75  73  94 E3        29.87F VSB 3/4
EASTMAN        MOCLDY    76  76 100 E3        29.89F
HAZLEHURST     CLOUDY    76  76 100 CALM      29.86F FOG
ALMA           CLOUDY    77  74  90 CALM      29.86F
6HR MIN TEMP:  76; 6HR MAX TEMP:  79;

WAYCROSS       CLOUDY    79  77  92 SE6       29.85F
JESUP          CLOUDY    81  75  83 SE5       29.86F
BAXLEY         CLOUDY    77  75  94 CALM      29.86F
BRUNSWICK      MOCLDY    79  73  83 S7        29.87F
SAINT SIMONS   CLOUDY    79  72  79 S13G21    29.88S
6HR MIN TEMP:  79; 6HR MAX TEMP:  82;


$$

SCZ027-028-034-036>038-045-046-048>050-GAZ119-141-030700-
...LAKE AND SUPPLEMENTAL COASTAL OBSERVATIONS...

STATION/POSITION TIME  TEMP    WIND        PRES    WAVE   SWELL
                       AIR SEA DIR/SP/G            HT/PER HT/PER/DIR
                 (UTC) (F)     (DEG/KT/KT) (MB)    (FT/S) (FT/S/D)
UPR LAKE MARION  NOT AVBL
WINYAH BAY       0545   79     180/ 12     1012.0S
LAKE MURRAY      0500   79     140/  6/ 10 1012.5S
ACE BASIN NERRS  NOT AVBL
FORT PULASKI     0600   80 86              1012.2F
SAPELO ISLAND    0600   80     170/ 16     1011.0F

$$

ANZ835-935-AMZ111-154-330-350-352-354-370-450-454-472-030700-
...C-MAN AND BUOY OBSERVATIONS...

STATION/POSITION TIME  TEMP    WIND        PRES    WAVE   SWELL
                       AIR SEA DIR/SP/G            HT/PER HT/PER/DIR
                 (UTC) (F)     (DEG/KT/KT) (MB)    (FT/S) (FT/S/D)
BUOY 41004       0550   83 83  190/ 19/ 23 1011.9F   7/ 7
BUOY 41008       0550   81 83  190/ 17/ 21 1011.9F   6/ 6   2/230/10
FOLLY BEACH CMAN 0600   82     200/ 20/ 24 1012.8S
CAPERS NEARSHORE 0508   82     200/ 14/ 17 1013.3F
FRIPP NEARSHORE  0500   82     210/ 17/ 21 1012.2F


STATION/POSITION TIME  TEMP    WIND        PRES    WAVE   SWELL
                       AIR SEA DIR/SP/G            HT/PER HT/PER/DIR
                 (UTC) (F)     (DEG/KT/KT) (MB)    (FT/S) (FT/S/D)
5E ST. MARYS GA  0521      82                N/A     5/ 6   2/110/12
FRYING PAN BUOY  0550   81 83  210/ 21/ 25 1014.1F   7/ 7   2/170/11
BUOY 41025       0550   82 85  230/ 12/ 16 1014.0F   3/ 5   2/170/ 7
CAPE LOOKOUT NC  0600   79     240/ 14/ 18 1013.3F
BUOY 41002       0550   82 81  200/ 16/ 19 1016.2F   5/ 7   2/ 90/11
BUOY 41010       0520   83 84  160/ 10/ 14 1015.3F
ST AUGUSTINE FL  0600   78 80  180/ 17/ 18 1012.1F


$$


USA.gov is the U.S. government's official web portal to all federal, state and local government web resources and services.